{"data":{"norad_id":68531,"epoch":"2026-05-25T02:42:34.471872Z","epoch_age_seconds":68727,"freshness":"FRESH","line1":"1 68531U 26068Z   26145.11289898  .00013061  00000+0  45249-3 0  9996","line2":"2 68531  53.1587 134.4340 0001463  75.5998 284.5165 15.30189341  8644","mean_motion":15.30189341,"eccentricity":0.0001463,"inclination_deg":53.1587,"raan_deg":134.434,"arg_perigee_deg":75.5998,"mean_anomaly_deg":284.5165,"bstar":0.00045249,"rev_number":864,"period_min":94.106001225897,"perigee_km":474.24424539286,"apogee_km":476.24954552068,"semimajor_km":6853.3838954568,"source":"CELESTRAK","updated_at":"2026-05-25T13:38:21.957781Z"}}